Home   Weather   Podgorica   Past weeks

Flag for Montenegro Past Weather in Podgorica, Montenegro — Yesterday and Last 2 Weeks

Now
30 °F

Passing clouds.


Feels Like: 30 °F
Forecast: 33 / 46 °F
Wind: 2 mph from North

Location: Podgorica Titograd

Current Time: Jan 24, 2017 at 6:35:27 am

Latest Report: Jan 24, 2017 at 6:00 am


Visibility: N/A

Pressure: 30.04 "Hg

Humidity: 69%

Dew Point: 21 °F

Location of PodgoricaLocation

Past Weather in Podgorica — Graph

°F

Podgorica Temperature Yesterday

Maximum temperature yesterday: 46 °F (at 1:00 pm)
Minimum temperature yesterday: 25 °F (at 5:00 am)
Average temperature yesterday: 34 °F

High & Low Weather Summary for the Past Weeks

 TemperatureHumidityPressure
High50 °F (Jan 19, 12:30 pm)100% (Jan 13, 7:00 am)30.48 "Hg (Jan 13, 7:00 am)
Low16 °F (Jan 12, 3:00 am)21% (Jan 9, 5:00 am)29.53 "Hg (Jan 13, 10:00 pm)
Average34 °F62%30.08 "Hg
* Reported Jan 9 5:00 am — Jan 24 5:00 am, Podgorica, Weather by CustomWeather, © 2017

Note: Actual official high and low records may vary slightly from our data, if they occured in-between our weather recording intervals... More about our weather records

Advertising

Podgorica Weather History for the Previous 24 Hours

Scroll right to see more
 ConditionsComfort  
Time TempWeatherWind HumidityBarometerVisibility
5:00 am
Tue, Jan 24
32 °FPassing clouds.1 mph64%30.07 "HgN/A
4:30 am32 °FPassing clouds.1 mph64%30.07 "HgN/A
4:00 am32 °FPassing clouds.2 mph64%30.07 "HgN/A
3:30 am32 °FPassing clouds.5 mph64%30.07 "HgN/A
3:00 am32 °FPassing clouds.3 mph64%30.09 "HgN/A
2:30 am32 °FPassing clouds.3 mph64%30.09 "HgN/A
1:30 am34 °FPassing clouds.3 mph65%30.09 "HgN/A
1:00 am32 °FPassing clouds.3 mph64%30.09 "HgN/A
12:30 am32 °FPassing clouds.3 mph64%30.09 "HgN/A
12:00 am32 °FPassing clouds.5 mph64%30.12 "HgN/A
11:30 pm
Mon, Jan 23
30 °FPassing clouds.5 mph64%30.12 "HgN/A
11:00 pm32 °FPassing clouds.3 mph64%30.12 "HgN/A
10:30 pm32 °FPassing clouds.2 mph64%30.12 "HgN/A
10:00 pm32 °FPassing clouds.1 mph64%30.12 "HgN/A
9:30 pm34 °FPassing clouds.2 mph60%30.09 "HgN/A
9:00 pm34 °FPassing clouds.1 mph60%30.12 "HgN/A
8:30 pm36 °FPassing clouds.3 mph56%30.09 "HgN/A
8:00 pm37 °FPassing clouds.3 mph48%30.09 "HgN/A
7:30 pm37 °FPassing clouds.6 mph48%30.09 "HgN/A
7:00 pm36 °FPassing clouds.2 mph56%30.09 "HgN/A
6:30 pm36 °FPassing clouds.No wind52%30.12 "HgN/A
6:00 pm37 °FPassing clouds.3 mph48%30.12 "HgN/A
5:30 pm36 °FPassing clouds.2 mph52%30.12 "HgN/A
5:00 pm39 °FPassing clouds.2 mph45%30.12 "HgN/A
4:30 pm43 °FPassing clouds.5 mph36%30.12 "HgN/A
4:00 pm43 °FScattered clouds.7 mph36%30.15 "HgN/A
3:30 pm45 °FPassing clouds.1 mph31%30.15 "HgN/A
3:00 pm45 °FPassing clouds.7 mph34%30.15 "HgN/A
2:30 pm46 °FPassing clouds.5 mph34%30.15 "HgN/A
2:00 pm46 °FPassing clouds.6 mph37%30.15 "HgN/A
1:30 pm46 °FPassing clouds.2 mph32%30.15 "HgN/A
1:00 pm46 °FPassing clouds.2 mph32%30.15 "HgN/A
12:30 pm45 °FScattered clouds.3 mph34%30.18 "HgN/A
12:00 pm45 °FScattered clouds.3 mph34%30.21 "HgN/A
11:30 am41 °FPartly sunny.2 mph42%30.21 "HgN/A
11:00 am41 °FScattered clouds.3 mph45%30.24 "HgN/A
10:30 am41 °FPassing clouds.2 mph39%30.24 "HgN/A
10:00 am37 °FPassing clouds.2 mph52%30.24 "HgN/A
9:30 am34 °FScattered clouds.3 mph60%30.27 "HgN/A
9:00 am28 °FFog.3 mph69%30.27 "HgN/A
8:30 am28 °FFog.3 mph64%30.27 "HgN/A
8:00 am27 °FFog.2 mph74%30.27 "HgN/A
7:30 am25 °FPassing clouds.5 mph69%30.27 "HgN/A
7:00 am25 °FPassing clouds.3 mph69%30.27 "HgN/A
6:30 am25 °FClear.2 mph74%30.27 "Hg10 mi
6:00 am25 °FClear.5 mph74%30.27 "Hg10 mi
Weather by CustomWeather, © 2017

See weather overviewHow to use our weather pages